DW7304 Weather Reports


Display with metric or nautical units.
time (UTC)temp
F
wind
direction
speed
MPH
gust
MPH
rain 1hr
in
rain 24hr
in
rain mn
in
humidity
%
barometer
mb
20260508043603 46 42 2.0 3.0 0.00 0.00 0.00 88 1011.1
20260508042703 46 43 1.0 2.0 0.00 0.00 0.00 87 1011.1
20260508041803 46 19 1.0 3.0 0.00 0.00 0.00 87 1011.2
20260508040903 46 25 1.0 3.0 0.00 0.00 0.00 87 1011.1
20260508040003 46 315 0.0 1.0 0.00 0.00 0.00 87 1011.1
20260508035403 46 315 0.0 1.0 0.00 0.00 0.00 86 1011.1
20260508034504 47 309 0.0 1.0 0.00 0.00 0.00 86 1011.2
20260508033817 47 18 0.0 2.0 0.00 0.00 0.00 86 1011.1
20260508032703 48 39 2.0 3.0 0.00 0.00 0.00 86 1011.2
20260508031803 48 39 2.0 2.0 0.00 0.00 0.00 86 1011.2
20260508031117 48 39 2.0 3.0 0.00 0.00 0.00 86 1011.3
20260508030217 48 360 0.0 1.0 0.00 0.00 0.00 86 1011.2
20260508025403 48 28 1.0 3.0 0.00 0.00 0.00 86 1011.2
20260508024503 48 85 0.0 2.0 0.00 0.00 0.00 86 1011.3
20260508023603 48 21 0.0 2.0 0.00 0.00 0.00 86 1011.3
20260508022703 48 22 0.0 2.0 0.00 0.00 0.00 85 1011.4
20260508021803 48 328 0.0 2.0 0.00 0.00 0.00 85 1011.3
20260508020903 48 0 0.0 0.0 0.00 0.00 0.00 86 1011.3
20260508020003 48 0 0.0 0.0 0.00 0.00 0.00 85 1011.3
20260508015403 48 0 0.0 0.0 0.00 0.00 0.00 85 1011.3
20260508014504 48 277 1.0 3.0 0.00 0.00 0.00 85 1011.4
20260508013603 48 0 0.0 0.0 0.00 0.00 0.00 85 1011.3
20260508012703 48 0 0.0 0.0 0.00 0.00 0.00 85 1011.3
20260508012017 48 18 0.0 1.0 0.00 0.00 0.00 84 1011.3
20260508010903 49 42 1.0 2.0 0.00 0.00 0.00 84 1011.5
20260508010003 48 45 2.0 3.0 0.00 0.00 0.00 84 1011.3
20260508005403 49 45 0.0 2.0 0.00 0.00 0.00 83 1011.3
20260508004503 48 23 0.0 2.0 0.00 0.00 0.00 83 1011.4
20260508003603 49 30 2.0 3.0 0.00 0.00 0.00 83 1011.2
20260508002704 48 30 2.0 4.0 0.00 0.00 0.00 83 1011.2
20260508002017 48 28 2.0 4.0 0.00 0.00 0.00 83 1011.3
20260508001116 49 33 1.0 4.0 0.00 0.00 0.00 82 1011.4
20260508000003 49 0 0.0 0.0 0.00 0.00 0.00 82 1011.4
20260507235403 49 0 0.0 0.0 0.00 0.00 0.00 82 1011.5
20260507234503 49 0 0.0 0.0 0.00 0.00 0.00 82 1011.6
20260507233603 48 59 0.0 1.0 0.00 0.00 0.00 82 1011.8
20260507232703 48 67 0.0 2.0 0.00 0.00 0.00 81 1011.6
20260507231803 48 38 1.0 2.0 0.00 0.00 0.00 81 1011.6
20260507230903 48 30 2.0 2.0 0.00 0.00 0.00 80 1011.7
20260507230005 48 63 1.0 2.0 0.00 0.00 0.00 79 1011.6
20260507225403 49 33 2.0 4.0 0.00 0.00 0.00 78 1011.8
20260507224503 49 100 0.0 2.0 0.00 0.00 0.00 78 1011.7
20260507223818 50 112 1.0 2.0 0.00 0.00 0.00 77 1011.8
20260507222917 50 127 1.0 5.0 0.00 0.00 0.00 77 1011.9
20260507222016 49 113 2.0 4.0 0.00 0.00 0.00 78 1012.1
20260507220903 49 94 2.0 4.0 0.00 0.00 0.00 78 1011.9
20260507220005 49 102 1.0 3.0 0.00 0.00 0.00 76 1011.8
20260507215616 49 128 1.0 3.0 0.00 0.00 0.00 76 1011.7
20260507214503 49 144 2.0 2.0 0.00 0.00 0.00 74 1011.7
20260507213603 48 119 1.0 2.0 0.00 0.00 0.00 73 1011.4
20260507212703 48 107 2.0 2.0 0.00 0.00 0.00 73 1011.5
20260507211803 49 96 1.0 2.0 0.00 0.00 0.00 72 1011.5
20260507210903 49 107 2.0 2.0 0.00 0.00 0.00 71 1011.5
20260507210004 48 96 2.0 2.0 0.00 0.00 0.00 70 1011.4
20260507205403 48 82 2.0 2.0 0.00 0.00 0.00 70 1011.5
20260507204503 49 71 2.0 2.0 0.00 0.00 0.00 70 1011.3
20260507203603 49 72 1.0 2.0 0.00 0.00 0.00 69 1011.3
20260507202703 49 75 2.0 2.0 0.00 0.00 0.00 69 1011.3
20260507201803 49 102 1.0 2.0 0.00 0.00 0.00 69 1011.3
20260507200903 49 105 1.0 2.0 0.00 0.00 0.00 70 1011.1
20260507200216 49 105 1.0 2.0 0.00 0.00 0.00 70 1011.1
20260507195618 49 97 2.0 2.0 0.00 0.00 0.00 70 1011.1
20260507194503 49 96 2.0 2.0 0.00 0.00 0.00 70 1011.0
20260507193603 49 91 1.0 2.0 0.00 0.00 0.00 71 1010.8
20260507192918 49 80 1.0 2.0 0.00 0.00 0.00 71 1010.5
20260507192017 49 62 1.0 2.0 0.00 0.00 0.00 71 1010.4
20260507190903 48 58 2.0 3.0 0.00 0.00 0.00 72 1010.1
20260507190004 49 82 2.0 3.0 0.00 0.00 0.00 72 1010.1
20260507185403 49 75 2.0 3.0 0.00 0.00 0.00 73 1010.0
20260507184503 49 47 3.0 3.0 0.00 0.00 0.00 75 1010.0
20260507183603 49 53 3.0 3.0 0.00 0.02 0.00 75 1009.8
20260507182703 51 41 2.0 3.0 0.00 0.02 0.00 74 1009.7
20260507181803 51 68 2.0 3.0 0.00 0.10 0.00 75 1009.8
20260507181118 52 70 0.0 2.0 0.00 0.12 0.00 74 1009.8
20260507180004 52 0 0.0 0.0 0.00 0.12 0.00 73 1009.7
20260507175403 53 0 0.0 0.0 0.00 0.12 0.00 72 1009.7
20260507174503 54 0 0.0 0.0 0.00 0.12 0.00 71 1009.6
20260507173603 55 0 0.0 0.0 0.00 0.12 0.00 71 1009.6
20260507172703 54 261 0.0 2.0 0.00 0.12 0.00 71 1009.6
20260507171803 55 274 1.0 3.0 0.00 0.17 0.00 70 1009.7
20260507170903 55 283 1.0 2.0 0.00 0.22 0.00 69 1009.7
20260507170003 55 295 1.0 5.0 0.00 0.24 0.00 69 1009.8
20260507165617 55 286 1.0 5.0 0.00 0.24 0.00 69 1010.0
20260507164718 55 276 1.0 4.0 0.00 0.24 0.00 70 1009.9
20260507163603 55 271 1.0 4.0 0.00 0.24 0.00 71 1009.9
20260507162703 55 243 4.0 8.0 0.00 0.24 0.00 70 1010.0
20260507161803 55 233 4.0 9.0 0.00 0.24 0.00 70 1010.0
20260507160903 55 233 5.0 10.0 0.00 0.24 0.00 71 1009.9
20260507160003 56 222 5.0 11.0 0.00 0.24 0.00 70 1009.8
20260507155403 56 229 5.0 12.0 0.00 0.24 0.00 69 1009.7
20260507154503 56 225 8.0 14.0 0.00 0.24 0.00 63 1009.6
20260507153603 57 227 8.0 12.0 0.00 0.24 0.00 61 1009.6
20260507152916 57 220 8.0 15.0 0.00 0.24 0.00 62 1009.5
20260507151803 58 210 8.0 13.0 0.00 0.24 0.00 60 1009.5
20260507150903 59 215 9.0 15.0 0.00 0.24 0.00 58 1009.0
20260507150003 60 244 8.0 15.0 0.00 0.24 0.00 57 1008.7
20260507145403 61 246 9.0 18.0 0.00 0.24 0.00 55 1008.6
20260507144503 62 224 10.0 18.0 0.00 0.26 0.00 54 1008.5
20260507143817 62 225 8.0 18.0 0.00 0.26 0.00 55 1008.4
20260507142703 62 218 7.0 16.0 0.00 0.26 0.00 56 1008.4
20260507142017 61 207 7.0 16.0 0.00 0.26 0.00 56 1008.4
20260507141117 61 208 6.0 15.0 0.00 0.28 0.00 55 1008.5
20260507140003 61 208 8.0 17.0 0.00 0.33 0.00 55 1008.5
20260507135403 61 201 6.0 12.0 0.00 0.33 0.00 57 1008.5
20260507134503 62 212 8.0 15.0 0.00 0.33 0.00 56 1008.7
20260507133603 62 223 6.0 14.0 0.00 0.33 0.00 57 1008.6
20260507132918 62 210 6.0 11.0 0.00 0.33 0.00 56 1008.5
20260507131803 61 231 10.0 18.0 0.00 0.33 0.00 56 1008.9
20260507131116 62 208 7.0 18.0 0.00 0.33 0.00 57 1008.8
20260507130003 62 225 6.0 14.0 0.00 0.33 0.00 55 1008.8
20260507125403 62 201 6.0 15.0 0.00 0.33 0.00 57 1008.9
20260507124716 62 223 7.0 15.0 0.00 0.35 0.00 56 1008.9
20260507123604 62 233 9.0 16.0 0.00 0.37 0.00 59 1009.0
20260507122705 61 239 6.0 15.0 0.00 0.39 0.00 60 1008.7
20260507122016 62 219 6.0 15.0 0.00 0.39 0.00 60 1008.8
20260507120903 61 209 7.0 12.0 0.00 0.39 0.00 59 1008.9
20260507120004 61 223 6.0 15.0 0.00 0.41 0.00 62 1008.8
20260507115403 61 229 7.0 15.0 0.00 0.43 0.00 60 1008.8
20260507114503 61 210 6.0 12.0 0.00 0.43 0.00 63 1008.8
20260507113603 61 214 7.0 15.0 0.00 0.43 0.00 67 1008.9
20260507112703 60 186 7.0 14.0 0.00 0.45 0.00 67 1009.0
20260507111803 61 200 6.0 12.0 0.00 0.45 0.00 67 1009.1
20260507110903 60 220 8.0 15.0 0.00 0.45 0.00 65 1009.0
20260507110003 61 234 7.0 14.0 0.00 0.45 0.00 67 1009.1
20260507105403 60 218 7.0 13.0 0.00 0.45 0.00 67 1009.1
20260507104718 60 203 6.0 14.0 0.00 0.45 0.00 70 1009.0
20260507103603 60 193 7.0 13.0 0.00 0.45 0.00 65 1009.1
20260507102703 60 209 8.0 13.0 0.00 0.45 0.00 71 1009.2
20260507101803 60 211 7.0 13.0 0.00 0.47 0.00 71 1009.2
20260507101117 60 214 7.0 13.0 0.00 0.47 0.00 71 1009.1
20260507100003 58 206 8.0 13.0 0.00 0.51 0.00 73 1009.1
20260507095403 58 211 8.0 15.0 0.00 0.53 0.00 71 1009.1
20260507094503 58 214 8.0 16.0 0.00 0.53 0.00 76 1009.1
20260507093604 58 215 7.0 17.0 0.00 0.53 0.00 74 1009.1
20260507092703 57 206 8.0 14.0 0.00 0.53 0.00 76 1009.1
20260507091803 58 203 8.0 16.0 0.00 0.53 0.00 76 1009.1
20260507090903 56 215 5.0 10.0 0.00 0.53 0.00 78 1009.1
20260507090004 56 228 6.0 11.0 0.00 0.53 0.00 76 1009.1
20260507085403 56 222 7.0 12.0 0.00 0.53 0.00 77 1009.0
20260507084503 57 208 7.0 11.0 0.00 0.55 0.00 74 1008.9
20260507083603 58 217 6.0 11.0 0.00 0.57 0.00 77 1009.0
20260507082703 56 217 7.0 15.0 0.00 0.59 0.00 75 1008.8
20260507081803 57 222 7.0 11.0 0.00 0.61 0.00 74 1008.7
20260507080903 57 227 6.0 11.0 0.00 0.63 0.00 77 1008.7
20260507080218 57 209 5.0 11.0 0.00 0.65 0.00 75 1008.7
20260507075617 57 212 6.0 11.0 0.00 0.67 0.00 75 1008.6
20260507074503 56 214 7.0 14.0 0.00 0.69 0.00 77 1008.5
20260507073818 56 236 5.0 13.0 0.00 0.69 0.00 80 1008.6
20260507072703 56 246 3.0 6.0 0.00 0.71 0.00 83 1008.4
20260507071803 56 243 3.0 5.0 0.00 0.74 0.00 82 1008.5
20260507070903 55 242 4.0 9.0 0.00 0.74 0.00 83 1008.4
20260507070004 55 217 7.0 11.0 0.00 0.81 0.00 81 1008.3
20260507065403 54 203 6.0 11.0 0.00 0.88 0.00 81 1008.3
20260507064503 54 148 5.0 12.0 0.00 0.92 0.00 82 1008.1
20260507063818 55 153 4.0 12.0 0.00 0.96 0.00 83 1008.1
20260507062703 54 155 5.0 11.0 0.00 1.02 0.00 82 1008.1
20260507061803 54 157 4.0 7.0 0.00 1.08 0.00 84 1008.0
20260507060903 53 146 4.0 8.0 0.00 1.16 0.00 85 1008.0
20260507060004 53 149 5.0 8.0 0.00 1.18 0.00 85 1008.1
20260507055403 53 151 3.0 7.0 0.00 1.18 0.00 85 1008.0
20260507054503 53 182 2.0 7.0 0.00 1.18 0.00 86 1008.0
20260507053603 52 186 2.0 7.0 0.00 1.18 0.00 87 1008.0
20260507052703 51 123 2.0 4.0 0.00 1.18 0.00 88 1007.8
20260507051803 51 97 2.0 5.0 0.00 1.18 0.00 88 1007.5
20260507050903 50 145 4.0 9.0 0.00 1.18 0.00 88 1007.5
20260507050217 50 143 4.0 9.0 0.00 1.18 0.00 88 1007.4
20260507045618 50 133 3.0 6.0 0.00 1.18 0.00 88 1007.3
20260507044503 50 170 1.0 4.0 0.00 1.18 0.00 88 1007.5